Regional Weather Roundup
Issued by NWS

Home | Current Version | Previous Version | Text Only | Print | Product List | Glossary Off
Versions: 1 2 3 4 5 6 7 8 9 10 11 12 13 14 15 16 17 18 19 20 21 22 23 24 25 26 27 28 29 30 31 32 33 34 35 36 37 38 39 40 41 42 43 44 45 46 47 48 49 50

000
ASUS43 KMKX 281714
RWRWI

WISCONSIN REGIONAL WEATHER ROUNDUP
NATIONAL WEATHER SERVICE MILWAUKEE/SULLIVAN WI
1200 PM CDT THU MAY 28 2015

NOTE: "FAIR" INDICATES FEW OR NO CLOUDS BELOW 12,000 FEET WITH NO
SIGNIFICANT WEATHER AND/OR OBSTRUCTIONS TO VISIBILITY.

WIZ001-002-006>008-014>016-023>028-281800-
NORTHWEST WISCONSIN

CITY           SKY/WX    TMP DP  RH WIND       PRES   REMARKS
SUPERIOR ARPT  CLOUDY    43  41  93 NE13      30.12S FOG
ASHLAND        MOSUNNY   57  49  74 N8        30.08F
HAYWARD        SUNNY     80  54  40 S15       30.06F HX  80
SIREN          MOSUNNY   80  51  36 W7        30.05S HX  80
CUMBERLAND     SUNNY     77  54  44 S9        30.08S
RICE LAKE      SUNNY     80  53  39 S9        30.09S HX  80
CHETEK         SUNNY     80  58  47 S9        30.08S HX  81
LADYSMITH      SUNNY     78  61  55 S7        30.11S
EAU CLAIRE     NOT AVBL
MENOMONIE      SUNNY     78  60  53 S9        30.08S
NEW RICHMOND   SUNNY     79  55  42 SW13      30.07S
OSCEOLA        SUNNY     80  56  44 S9        30.08S HX  80
$$

WIZ003>005-009-010-017-018-281800-
NORTH CENTRAL WISCONSIN

CITY           SKY/WX    TMP DP  RH WIND       PRES   REMARKS
MANITOWISH WTR SUNNY     77  60  56 S9        30.10F
ARBOR VITAE    SUNNY     80  58  48 S10G16    30.11F HX  80
WOODRUFF       SUNNY     80  58  48 S10G16    30.11F HX  80
RHINELANDER    SUNNY     80  55  42 SW12G20   30.13F HX  80
EAGLE RIVER    SUNNY     79  50  36 S9        30.12F
LAND O LAKES   SUNNY     80  51  37 SW10G17   30.13S
PHILLIPS       MOSUNNY   77  59  52 SW7       30.10F
TOMAHAWK       SUNNY     77  61  57 CALM      30.13S
MEDFORD        SUNNY     75  61  63 SW8       30.13F
MERRILL        SUNNY     77  62  59 SW8       30.14S
$$

WIZ029-030-035-036-043>047-281800-
CENTRAL WISCONSIN

CITY           SKY/WX    TMP DP  RH WIND       PRES   REMARKS
WAUSAU         SUNNY     78  59  51 SW8       30.12S
MOSINEE        SUNNY     75  64  69 SW8       30.15S
MARSHFIELD     SUNNY     81  57  43 SW7       30.13S HX  81
STEVENS POINT  SUNNY     77  59  53 SW7       30.14F
WAUPACA        SUNNY     82  60  46 SW8       30.14F HX  82
WAUTOMA        NOT AVBL
WISC RAPIDS    SUNNY     82  57  42 S13       30.14F HX  82
CAMP DOUGLAS   NOT AVBL
$$

WIZ011>013-019>022-031-037>040-048>050-281800-
NORTHEAST WISCONSIN

CITY           SKY/WX    TMP DP  RH WIND       PRES   REMARKS
ANTIGO         SUNNY     75  64  69 S6        30.15S
SHAWANO        SUNNY     77  64  65 SW5       30.15S
OCONTO         SUNNY     71  61  69 S3        30.15S
STURGEON BAY   SUNNY     70  61  73 SE8       30.19S
GREEN BAY      SUNNY     79  65  62 S7        30.14F HX  81
MANITOWOC      NOT AVBL
APPLETON       SUNNY     77  59  53 SW8       30.16F
CLINTONVILLE   SUNNY     75  63  64 SW5       30.14F
OSHKOSH        MOSUNNY   80  60  50 W6        30.15F HX  81
$$

WIZ032>034-041-042-053>061-281800-
SOUTHWEST WISCONSIN

CITY           SKY/WX    TMP DP  RH WIND       PRES   REMARKS
LA CROSSE      MOSUNNY   81  61  50 S7        30.10F HX  82
SPARTA         MOSUNNY   81  55  41 SW8       30.13F HX  80
VIROQUA        MOSUNNY   77  59  53 SW7       30.15F
BOSCOBEL       MOSUNNY   81  59  47 VRB6      30.14S HX  81
PRAIRIE DU CHI PTSUNNY   78  58  50 S5        30.13S
PLATTEVILLE    MOSUNNY   77  56  48 S13       30.17S
$$

WIZ056-057-062-063-064-067-068-281800-
SOUTH CENTRAL WISCONSIN

CITY           SKY/WX    TMP DP  RH WIND       PRES   REMARKS
REEDSBURG      MOSUNNY   77  62  58 S3        30.15S
BARABOO/DELLS  MOSUNNY   76  59  53 SW6       30.16S
LONE ROCK      NOT AVBL
MINERAL POINT  MOSUNNY   77  57  50 S8        30.17S
MADISON        PTSUNNY   79  56  45 S12G17    30.16F HX  80
MIDDLETON      MOSUNNY   80  54  39 SW10      30.17S HX  80
WATERTOWN      MOSUNNY  N/A N/A N/A SW7       30.17F
MONROE         MOSUNNY   77  59  53 S10       30.18S
JANESVILLE     SUNNY     79  55  44 SW7       30.17F
$$

WIZ051-052-058>065-066-070>072-281800-
SOUTHEAST WISCONSIN

CITY           SKY/WX    TMP DP  RH WIND       PRES   REMARKS
MILWAUKEE      PTSUNNY   80  60  50 SE10      30.18F HX  81
WAUKESHA       PTSUNNY   77  57  50 S6        30.19F
MILWAUKEE/TIMM MOSUNNY   79  54  41 S6        30.19F
RACINE         SUNNY     77  59  53 SE12      30.21S
BURLINGTON     SUNNY     77  56  49 S5        30.19F
KENOSHA        SUNNY     79  58  48 S7        30.19F HX  80
FOND DU LAC    MOSUNNY   79  61  53 MISG      30.16F HX  80
SHEBOYGAN      SUNNY     79  61  53 SW7       30.17S HX  80
WEST BEND      MOSUNNY   77  55  47 SW3       30.18F
JUNEAU         MOSUNNY   76  62  60 S7        30.19S
$$

LSZ147-162-281800-
LAKE SUPERIOR

STATION/POSITION TIME  TEMP    WIND        PRES    WAVE
                       AIR SEA DIR/SP/G            HT/PER
                 (UTC) (F)     (DEG/KT/KT) (MB)    (FT/S)
W MID LAKE BUOY  1550   39 37   50/ 16/ 17   N/A     2/ 4
DEVILS ISLAND    1600   40      60/ 15/ 17   N/A
PORT WING        1640   41      30/ 16/ 18   N/A
SAXON HARBOR     1600   46        CALM       N/A
$$

LMZ867-665-643>646-281800-
LAKE MICHIGAN

STATION/POSITION TIME  TEMP    WIND        PRES    WAVE
                       AIR SEA DIR/SP/G            HT/PER
                 (UTC) (F)     (DEG/KT/KT) (MB)    (FT/S)
CHAMBERS ISLAND  1600   55     360/  6/  6   N/A
N MID LAKE BUOY  1550   40 37  140/  4/  6   N/A     1/ 4
NORTHPORT PIER   1600   51     130/  9/ 10   N/A
SISTER BAY       1618   60     350/  5/  6   N/A
ALGOMA LAKESHORE 1608          190/  2/  5   N/A
KEWAUNEE LAKESHO 1600   49     150/  5/  7   N/A
SHEBOYGAN LAKESH 1600   54     160/ 16/ 16   N/A
PORT WASHINGTON  1630   61     110/  3/ 15   N/A
ATWATER BUOY     1600   62 48  130/ 10/ 12   N/A
MILWAUKEE LAKESH 1600   74     200/  6/  8   N/A
S MID LAKE BUOY  1550   45 38  180/  8/  8   N/A     0
KENOSHA   LAKESH 1600          170/  9/ 12   N/A
$$

TC  - TEMPERATURE IN CELSIUS
VSB - VISIBILITY IN STATUTE MILES
WCI - WIND CHILL INDEX
HX  - HEAT INDEX




USA.gov is the U.S. government's official web portal to all federal, state and local government web resources and services.